IU1JVO-13 Weather Reports


time (UTC)temp
F
wind
direction
speed
knots
gust
knots
rain 1hr
in
rain 24hr
in
rain mn
in
humidity
%
barometer
mb
20260505165306 55 221 0.0 4.3 0.00 0.72 0.28 85 1014.4
20260505165205 55 229 0.9 4.3 0.00 0.72 0.28 86 1014.4
20260505164806 55 241 0.9 4.3 0.00 0.73 0.28 85 1014.4
20260505164536 55 235 0.9 4.3 0.00 0.74 0.28 84 1014.6
20260505164205 55 232 0.9 4.3 0.00 0.74 0.28 84 1014.6
20260505163805 55 195 0.9 4.3 0.00 0.74 0.28 83 1014.5
20260505163305 55 76 0.9 2.6 0.00 0.75 0.28 83 1014.6
20260505163205 55 54 0.0 2.6 0.00 0.75 0.28 83 1014.6
20260505163037 55 0 0.9 5.2 0.00 0.75 0.28 83 1014.7
20260505162307 55 322 0.9 5.2 0.00 0.75 0.28 82 1014.6
20260505162205 55 320 0.9 5.2 0.00 0.75 0.28 82 1014.7
20260505161804 55 322 0.9 5.2 0.00 0.75 0.28 83 1014.7
20260505161302 55 278 0.9 5.2 0.00 0.76 0.28 82 1014.6
20260505161202 55 245 0.9 5.2 0.00 0.76 0.28 82 1014.6
20260505160803 55 212 0.0 2.6 0.00 0.76 0.28 82 1014.4
20260505160302 55 170 0.9 2.6 0.00 0.76 0.28 82 1014.4
20260505160203 55 167 0.9 2.6 0.00 0.76 0.28 83 1014.4
20260505153302 55 62 0.9 2.6 0.00 0.76 0.28 83 1014.3
20260505153202 55 58 0.9 2.6 0.00 0.76 0.28 83 1014.3
20260505152803 55 69 0.0 1.7 0.00 0.76 0.28 82 1014.4
20260505152533 55 71 0.0 2.6 0.00 0.76 0.28 81 1014.4
20260505152202 55 67 0.0 2.6 0.00 0.76 0.28 81 1014.4
20260505151759 55 36 0.0 2.6 0.00 0.76 0.28 82 1014.4
20260505151257 55 53 0.0 2.6 0.00 0.76 0.28 82 1014.4
20260505151202 55 62 0.0 2.6 0.00 0.76 0.28 82 1014.4
20260505150756 55 108 0.9 2.6 0.00 0.76 0.28 81 1014.5
20260505150256 55 127 0.0 2.6 0.00 0.76 0.28 81 1014.4
20260505150203 55 127 0.0 2.6 0.00 0.76 0.28 81 1014.5
20260505140250 55 173 0.0 1.7 0.00 0.77 0.28 81 1014.9
20260505140201 55 179 0.0 1.7 0.00 0.77 0.28 81 1015.0
20260505130200 54 24 0.0 1.7 0.00 0.79 0.28 84 1015.1
20260505124747 53 51 0.0 1.7 0.00 0.79 0.28 83 1015.2
20260505124513 53 69 0.0 2.6 0.00 0.79 0.28 82 1015.1
20260505124158 54 74 0.0 2.6 0.00 0.79 0.28 82 1015.2
20260505123741 54 107 0.0 2.6 0.00 0.79 0.28 81 1015.2
20260505123242 54 157 0.0 2.6 0.00 0.79 0.28 81 1015.2
20260505123158 54 160 0.0 2.6 0.00 0.79 0.28 82 1015.1
20260505122739 54 146 0.0 2.6 0.00 0.79 0.28 81 1015.2
20260505122511 54 137 0.0 2.6 0.00 0.80 0.28 82 1015.3
20260505122158 54 136 0.0 2.6 0.00 0.80 0.28 82 1015.3
20260505121739 54 134 0.0 2.6 0.00 0.80 0.28 82 1015.3
20260505121238 53 134 0.9 2.6 0.00 0.80 0.28 81 1015.2
20260505121159 54 132 0.9 2.6 0.00 0.80 0.28 81 1015.3
20260505120738 54 134 0.0 2.6 0.00 0.80 0.28 83 1015.2
20260505120508 53 137 0.9 2.6 0.00 0.80 0.28 81 1015.2
20260505120159 53 142 0.9 2.6 0.00 0.80 0.28 81 1015.3
20260505115737 53 154 0.9 2.6 0.00 0.80 0.28 81 1015.2
20260505115244 53 137 0.0 1.7 0.00 0.80 0.28 82 1015.2
20260505115237 53 150 0.0 2.6 0.00 0.80 0.28 82 1015.3
20260505115231 53 148 0.0 1.7 0.00 0.80 0.28 82 1015.2
20260505114236 53 137 0.0 1.7 0.00 0.80 0.28 82 1015.5
20260505114156 53 136 0.0 1.7 0.00 0.80 0.28 82 1015.3
20260505113744 53 144 0.0 1.7 0.00 0.80 0.28 81 1015.3
20260505113740 53 146 0.0 1.7 0.00 0.80 0.28 80 1015.3
20260505113156 53 150 0.0 1.7 0.00 0.80 0.28 81 1015.3
20260505112736 53 148 0.0 1.7 0.00 0.80 0.28 81 1015.3
20260505112513 53 164 0.0 1.7 0.00 0.80 0.28 80 1015.3
20260505112156 53 160 0.0 1.7 0.00 0.80 0.28 81 1015.5
20260505112009 53 167 0.0 1.7 0.00 0.80 0.28 80 1015.5
20260505111235 53 170 0.0 1.7 0.00 0.80 0.28 83 1015.6
20260505111157 53 173 0.0 1.7 0.00 0.80 0.28 83 1015.6
20260505111003 52 197 0.0 1.7 0.00 0.80 0.28 81 1015.6
20260505110236 52 222 0.0 1.7 0.00 0.80 0.28 82 1015.6
20260505110157 52 223 0.0 1.7 0.00 0.80 0.28 82 1015.6
20260505102157 51 140 0.0 1.7 0.01 0.80 0.28 87 1015.5
20260505101736 50 141 0.0 2.6 0.01 0.80 0.28 87 1015.3
20260505101236 50 145 0.0 2.6 0.01 0.80 0.28 88 1015.6
20260505101158 50 141 0.0 3.5 0.01 0.80 0.28 88 1015.3
20260505100740 50 124 0.0 3.5 0.01 0.80 0.28 88 1015.6
20260505100235 50 115 0.9 3.5 0.01 0.80 0.28 89 1015.6
20260505100157 50 116 0.9 3.5 0.01 0.80 0.28 89 1015.6
20260505095737 50 130 0.9 3.5 0.01 0.80 0.28 89 1015.6
20260505095504 50 139 0.9 3.5 0.01 0.80 0.28 88 1015.6
20260505095158 50 139 0.9 3.5 0.01 0.80 0.28 88 1015.6
20260505094734 50 141 0.9 3.5 0.01 0.80 0.28 88 1015.6
20260505094234 50 133 0.9 3.5 0.01 0.80 0.28 88 1015.5
20260505094157 50 129 0.9 3.5 0.01 0.80 0.28 88 1015.3
20260505094002 50 132 0.9 3.5 0.00 0.80 0.28 88 1015.5
20260505093231 50 39 0.9 3.5 0.00 0.80 0.28 88 1015.5
20260505093156 50 37 0.9 3.5 0.00 0.80 0.28 87 1015.3
20260505092732 50 65 0.9 2.6 0.00 0.80 0.28 87 1015.5
20260505092231 50 129 0.9 2.6 0.00 0.80 0.28 85 1015.2
20260505092157 50 130 0.9 2.6 0.00 0.80 0.28 85 1015.3
20260505091731 50 187 0.9 2.6 0.00 0.80 0.28 85 1015.2
20260505091230 50 258 0.0 2.6 0.00 0.80 0.28 85 1015.2
20260505091157 50 261 0.0 2.6 0.00 0.80 0.28 85 1015.1
20260505090731 50 258 0.0 2.6 0.00 0.80 0.28 85 1015.2
20260505090229 50 251 0.9 2.6 0.00 0.80 0.28 85 1015.2
20260505090158 50 250 0.9 2.6 0.00 0.80 0.28 85 1015.2
20260505085728 50 247 0.9 2.6 0.00 0.80 0.28 85 1015.1
20260505085228 50 253 0.9 4.3 0.00 0.80 0.28 84 1015.1
20260505085157 50 254 0.9 4.3 0.00 0.80 0.28 84 1015.1
20260505084957 50 263 0.0 4.3 0.00 0.80 0.28 85 1015.0
20260505084228 49 264 0.9 5.2 0.00 0.80 0.28 85 1014.9
20260505084157 49 263 0.9 5.2 0.00 0.80 0.28 85 1014.9
20260505083726 49 263 0.9 5.2 0.00 0.80 0.28 84 1014.8
20260505083226 49 262 1.7 5.2 0.00 0.80 0.28 85 1014.8
20260505083156 49 262 1.7 5.2 0.00 0.80 0.28 85 1014.8
20260505082726 49 259 2.6 5.2 0.00 0.80 0.28 84 1014.8
20260505082225 49 257 1.7 4.3 0.00 0.80 0.28 85 1014.8
20260505082158 49 256 1.7 4.3 0.00 0.80 0.28 86 1014.8
20260505081726 49 252 0.9 4.3 0.00 0.80 0.28 86 1014.7
20260505081225 49 252 0.9 3.5 0.00 0.80 0.28 86 1014.7
20260505081157 49 252 0.9 3.5 0.00 0.80 0.28 86 1014.7
20260505080726 49 251 1.7 3.5 0.00 0.80 0.28 87 1014.8
20260505080226 49 256 1.7 4.3 0.00 0.80 0.28 87 1014.8
20260505080157 49 257 1.7 4.3 0.00 0.80 0.28 87 1014.9
20260505075727 49 267 1.7 5.2 0.00 0.80 0.28 87 1014.7
20260505075723 49 259 1.7 5.2 0.00 0.80 0.28 87 1014.7
20260505075157 49 258 1.7 5.2 0.00 0.80 0.28 87 1014.7
20260505074726 49 249 2.6 6.1 0.00 0.80 0.28 87 1014.7
20260505074226 49 257 1.7 6.1 0.00 0.80 0.28 86 1014.8
20260505074157 49 259 1.7 6.1 0.00 0.80 0.28 86 1014.8
20260505073725 49 268 1.7 6.1 0.00 0.80 0.28 85 1014.6
20260505073226 48 266 1.7 6.1 0.00 0.80 0.28 84 1014.7
20260505073156 48 267 1.7 6.1 0.00 0.80 0.28 84 1014.7
20260505072725 48 272 1.7 5.2 0.00 0.80 0.28 86 1014.7
20260505072226 48 275 1.7 4.3 0.01 0.80 0.28 86 1014.7
20260505072157 48 274 1.7 4.3 0.01 0.80 0.28 85 1014.7
20260505071735 48 273 0.9 6.1 0.01 0.80 0.28 85 1014.7
20260505071730 48 262 0.9 5.2 0.01 0.80 0.28 85 1014.7
20260505071158 48 274 0.9 6.1 0.01 0.80 0.28 85 1014.6
20260505070724 48 285 1.7 6.1 0.01 0.80 0.28 84 1014.6
20260505070224 48 279 1.7 6.1 0.01 0.80 0.28 83 1014.7
20260505070157 48 279 1.7 6.1 0.01 0.80 0.28 83 1014.7
20260505065724 48 289 1.7 7.0 0.01 0.80 0.28 82 1014.7
20260505065225 48 286 0.9 7.0 0.01 0.80 0.28 84 1014.8
20260505065156 48 287 0.9 7.0 0.01 0.80 0.28 84 1014.8
20260505064722 48 278 1.7 7.0 0.01 0.80 0.28 83 1014.7
20260505064220 48 276 3.5 7.0 0.01 0.80 0.28 83 1014.7
20260505064157 48 274 3.5 7.0 0.01 0.80 0.28 83 1014.7
20260505063719 48 263 2.6 6.1 0.01 0.80 0.28 84 1014.7
20260505063220 48 258 1.7 4.3 0.01 0.80 0.28 87 1014.8
20260505063157 48 258 1.7 4.3 0.01 0.80 0.28 87 1014.8
20260505062944 47 260 0.9 4.3 0.01 0.80 0.28 87 1014.6
20260505062216 47 262 0.0 3.5 0.00 0.79 0.27 88 1014.7
20260505062159 47 262 0.0 3.5 0.00 0.79 0.27 88 1014.8
20260505061716 47 270 0.0 7.8 0.00 0.79 0.27 87 1014.7
20260505061216 47 283 0.9 7.8 0.00 0.79 0.27 86 1014.6
20260505061157 47 285 0.9 7.8 0.00 0.79 0.27 86 1014.6
20260505060722 47 287 2.6 7.8 0.00 0.79 0.27 84 1014.6
20260505060717 47 282 1.7 7.8 0.00 0.79 0.27 85 1014.6
20260505060157 47 285 2.6 7.8 0.00 0.79 0.27 84 1014.6
20260505055715 47 295 1.7 7.8 0.00 0.79 0.27 85 1014.7
20260505055215 47 288 3.5 7.8 0.00 0.79 0.27 84 1014.7
20260505055156 47 288 3.5 7.8 0.00 0.79 0.27 84 1014.7
20260505054716 47 280 3.5 7.8 0.00 0.79 0.27 84 1014.8
20260505054216 47 281 2.6 7.0 0.00 0.79 0.27 84 1014.8
20260505054158 47 281 2.6 7.0 0.00 0.79 0.27 84 1014.8
20260505053715 46 295 1.7 6.1 0.01 0.79 0.27 84 1014.7
20260505053215 46 294 2.6 6.1 0.01 0.79 0.27 85 1014.8
20260505053157 46 294 2.6 6.1 0.01 0.79 0.27 85 1014.8
20260505052716 46 276 2.6 6.1 0.02 0.79 0.27 84 1014.8
20260505052216 46 265 2.6 6.1 0.04 0.79 0.27 84 1014.8
20260505052158 46 264 2.6 6.1 0.04 0.79 0.27 84 1014.8
20260505051716 47 259 1.7 6.1 0.05 0.79 0.27 85 1014.9
20260505051505 47 257 1.7 6.1 0.06 0.79 0.27 85 1014.9
20260505051229 47 257 1.7 6.1 0.06 0.79 0.27 85 1014.9
20260505050953 47 258 1.7 6.1 0.06 0.79 0.27 86 1015.0
20260505050157 47 258 1.7 6.1 0.08 0.79 0.27 86 1015.0
20260505041707 47 244 0.0 0.9 0.11 0.74 0.23 90 1015.3
20260505041208 48 244 0.0 0.9 0.11 0.73 0.21 89 1015.5
20260505041156 48 244 0.0 0.9 0.11 0.73 0.21 89 1015.5
20260505040940 48 244 0.0 1.7 0.10 0.72 0.20 89 1015.3
20260505040206 48 249 0.0 5.2 0.10 0.71 0.19 89 1015.5
20260505040153 48 249 0.0 5.2 0.10 0.71 0.19 89 1015.5
20260505035706 48 255 0.0 5.2 0.09 0.70 0.18 89 1015.5
20260505035206 48 254 1.7 5.2 0.09 0.69 0.17 88 1015.6
20260505035152 48 254 1.7 5.2 0.09 0.69 0.17 88 1015.6
20260505034706 48 254 1.7 5.2 0.09 0.69 0.17 88 1015.6
20260505034207 48 255 1.7 4.3 0.09 0.67 0.15 89 1015.7
20260505034152 48 255 1.7 4.3 0.09 0.67 0.15 89 1015.7
20260505033707 48 254 1.7 4.3 0.09 0.66 0.14 90 1015.8
20260505033209 48 252 1.7 4.3 0.09 0.65 0.13 91 1015.8
20260505033152 48 252 1.7 4.3 0.09 0.65 0.13 91 1015.8
20260505032704 48 250 0.9 3.5 0.09 0.64 0.13 91 1015.8
20260505032203 48 250 0.9 2.6 0.09 0.64 0.12 91 1015.8
20260505032151 48 250 0.9 2.6 0.09 0.64 0.12 91 1015.8
20260505031702 48 251 0.9 2.6 0.09 0.63 0.11 91 1015.8
20260505031201 48 248 0.0 1.7 0.09 0.62 0.10 90 1015.9
20260505031151 48 248 0.0 1.7 0.09 0.62 0.10 90 1015.9
20260505030701 48 247 0.0 2.6 0.09 0.61 0.09 90 1015.9
20260505030201 48 250 0.0 2.6 0.09 0.61 0.09 89 1015.9
20260505030152 48 250 0.0 2.6 0.09 0.61 0.09 89 1015.9
20260505025701 48 254 0.0 2.6 0.09 0.61 0.09 89 1016.0
20260505025202 48 253 0.9 5.2 0.08 0.60 0.08 89 1015.9
20260505025152 48 253 0.9 5.2 0.08 0.60 0.08 89 1015.9
20260505024702 48 252 0.9 5.2 0.07 0.59 0.07 89 1015.9
20260505024432 48 254 0.9 5.2 0.06 0.58 0.06 88 1015.9
20260505024152 48 254 0.9 5.2 0.06 0.58 0.06 88 1015.9
20260505023701 48 254 0.9 6.1 0.06 0.57 0.06 88 1015.9
20260505023202 48 250 0.9 6.1 0.04 0.56 0.05 88 1015.9
20260505023152 48 250 0.9 6.1 0.04 0.56 0.05 88 1015.9
20260505022702 48 251 1.7 6.1 0.03 0.55 0.04 88 1015.8
20260505022202 48 255 1.7 6.1 0.02 0.54 0.02 87 1015.8
20260505022152 48 255 1.7 6.1 0.02 0.54 0.02 87 1015.8
20260505021704 49 250 1.7 5.2 0.02 0.54 0.02 87 1015.9
20260505021152 48 249 0.9 3.5 0.02 0.54 0.02 89 1015.8
20260505020928 49 248 0.9 3.5 0.01 0.53 0.01 89 1015.9
20260505020154 49 239 0.9 3.5 0.00 0.52 0.00 90 1015.9
20260505015656 49 231 0.0 0.9 0.00 0.52 0.00 91 1015.9
20260505015153 49 230 0.0 0.0 0.00 0.52 0.00 91 1015.8
20260505014925 49 230 0.0 0.0 0.00 0.52 0.00 90 1015.7
20260505014153 49 230 0.0 0.0 0.00 0.52 0.00 90 1015.8
20260505013656 49 230 0.0 0.0 0.00 0.52 0.00 90 1015.8
20260505013152 49 230 0.0 1.7 0.00 0.52 0.00 90 1015.7
20260505012656 49 230 0.0 4.3 0.00 0.52 0.00 90 1015.7
20260505012151 49 239 0.0 4.3 0.00 0.52 0.00 90 1015.8
20260505011656 49 250 0.9 4.3 0.00 0.52 0.00 90 1015.9
20260505011152 49 250 1.7 4.3 0.00 0.52 0.00 89 1016.0
20260505010656 49 249 0.9 2.6 0.00 0.52 0.00 90 1016.0
20260505010152 49 249 0.0 2.6 0.00 0.52 0.00 90 1016.1
20260505005656 49 249 0.0 2.6 0.00 0.52 0.00 90 1016.2
20260505005152 49 248 0.0 3.5 0.00 0.52 0.00 90 1016.3
20260505004656 49 247 0.0 3.5 0.00 0.52 0.00 90 1016.4
20260505004152 49 247 0.9 3.5 0.00 0.52 0.00 90 1016.7
20260505003656 49 246 0.9 3.5 0.00 0.52 0.00 89 1016.9
20260505003152 49 247 0.9 3.5 0.00 0.52 0.00 89 1016.9
20260505002657 49 250 0.9 4.3 0.00 0.52 0.00 89 1017.3
20260505002151 49 252 0.9 4.3 0.00 0.52 0.00 89 1017.4
20260505001655 49 252 1.7 4.3 0.00 0.52 0.00 90 1017.6
20260505001149 49 249 1.7 4.3 0.00 0.52 0.00 90 1017.6
20260505000656 49 248 0.9 3.5 0.00 0.52 0.00 90 1017.7
20260505000148 49 250 0.9 3.5 0.00 0.52 0.00 90 1017.8
20260504235655 49 252 1.7 3.5 0.00 0.52 0.00 90 1017.9
20260504235148 49 250 1.7 3.5 0.00 0.52 0.00 91 1017.9
20260504234653 49 247 0.9 3.5 0.00 0.52 0.00 91 1017.9
20260504234148 49 249 0.9 3.5 0.00 0.52 0.00 91 1018.0
20260504233923 49 246 0.9 3.5 0.00 0.52 0.00 91 1018.0
20260504233147 49 242 0.0 1.7 0.00 0.52 0.00 91 1018.1
20260504232652 49 239 0.0 1.7 0.00 0.52 0.00 92 1018.1
20260504232148 49 228 0.0 1.7 0.00 0.52 0.00 92 1018.2
20260504231919 49 217 0.0 0.9 0.00 0.52 0.00 92 1018.3
20260504231151 49 228 0.0 0.9 0.00 0.52 0.00 91 1018.3
20260504231147 49 229 0.0 0.9 0.00 0.52 0.00 91 1018.3
20260504230650 49 246 0.0 0.9 0.00 0.52 0.00 92 1018.4
20260504230147 49 250 0.0 0.9 0.00 0.52 0.00 91 1018.4
20260504225650 49 250 0.0 1.7 0.00 0.52 0.00 91 1018.4
20260504225148 49 251 0.0 1.7 0.00 0.52 0.00 91 1018.4
20260504224649 49 249 0.0 1.7 0.00 0.52 0.00 91 1018.5
20260504224147 49 246 0.0 1.7 0.00 0.52 0.00 92 1018.6
20260504223648 49 246 0.0 0.9 0.01 0.52 0.00 92 1018.6
20260504223151 49 246 0.0 2.6 0.01 0.52 0.00 92 1018.6
20260504223147 49 246 0.0 2.6 0.01 0.52 0.00 92 1018.5
20260504222650 49 246 0.0 4.3 0.01 0.52 0.00 92 1018.7
20260504222147 49 246 0.9 4.3 0.02 0.52 0.00 92 1018.6
20260504221646 49 242 1.7 5.2 0.02 0.52 0.00 92 1018.9
20260504221401 49 242 1.7 5.2 0.02 0.52 0.00 92 1018.9
20260504220646 49 244 1.7 5.2 0.03 0.52 0.00 92 1019.0
20260504220401 49 246 1.7 5.2 0.05 0.52 0.00 91 1019.3
20260504215646 49 247 1.7 3.5 0.06 0.52 0.52 91 1019.3
20260504215145 49 247 0.9 2.6 0.06 0.52 0.52 91 1019.5
20260504214646 49 246 0.9 2.6 0.06 0.52 0.52 91 1019.6
20260504214145 49 242 0.9 2.6 0.06 0.52 0.52 91 1019.7
20260504213917 49 238 0.0 1.7 0.06 0.51 0.51 91 1019.7
20260504213144 49 238 0.0 1.7 0.06 0.51 0.51 91 1019.7
20260504212642 49 240 0.0 1.7 0.06 0.51 0.51 91 1019.8
20260504212143 49 243 0.0 1.7 0.06 0.50 0.50 91 1019.9
20260504211641 49 246 0.0 2.6 0.06 0.50 0.50 91 1019.9
20260504211144 49 244 0.0 4.3 0.06 0.50 0.50 91 1020.0
20260504210641 49 242 0.9 4.3 0.06 0.49 0.49 91 1020.0
20260504210357 49 243 1.7 4.3 0.06 0.47 0.47 91 1019.9
20260504205641 49 244 1.7 4.3 0.07 0.46 0.46 91 1019.9
20260504205140 49 244 1.7 3.5 0.08 0.46 0.46 91 1019.9
20260504204915 49 242 1.7 3.5 0.09 0.46 0.46 91 1019.9
20260504204422 49 240 0.9 2.6 0.11 0.46 0.46 91 1020.0
20260504204140 49 240 0.9 2.6 0.11 0.46 0.46 91 1020.0
20260504203651 49 239 0.0 1.7 0.12 0.45 0.45 91 1020.1
20260504203645 49 240 0.0 1.7 0.12 0.46 0.46 91 1020.0
20260504203355 49 239 0.0 1.7 0.12 0.45 0.45 91 1020.1
20260504202641 49 237 0.0 0.9 0.13 0.45 0.45 91 1020.1
20260504202139 49 237 0.0 0.9 0.13 0.45 0.45 91 1020.1
20260504201640 49 236 0.0 0.9 0.13 0.44 0.44 90 1020.0
20260504201417 49 237 0.0 1.7 0.13 0.44 0.44 91 1020.1
20260504201139 49 237 0.0 1.7 0.13 0.44 0.44 91 1020.0
20260504200640 49 237 0.0 1.7 0.12 0.43 0.43 91 1020.1
20260504200138 49 237 0.0 1.7 0.11 0.42 0.42 91 1020.1
20260504195636 49 237 0.0 1.7 0.09 0.39 0.40 91 1020.1
20260504195136 50 237 0.0 0.9 0.09 0.39 0.39 91 1020.0
20260504194636 50 237 0.0 0.9 0.07 0.37 0.37 91 1019.9
20260504194137 50 237 0.0 0.9 0.05 0.35 0.35 91 1020.0
20260504193908 50 237 0.0 0.0 0.05 0.34 0.34 91 1019.9
20260504193139 50 237 0.0 0.9 0.04 0.33 0.33 91 1019.8
20260504192637 50 237 0.0 0.9 0.04 0.32 0.32 90 1019.6
20260504192138 50 237 0.0 0.9 0.04 0.31 0.31 90 1019.6
20260504191636 50 238 0.0 2.6 0.04 0.31 0.31 90 1019.6
20260504191137 50 237 0.0 2.6 0.06 0.31 0.31 90 1019.6
20260504190636 50 239 0.9 2.6 0.07 0.31 0.31 90 1019.5
20260504190348 50 241 0.9 2.6 0.08 0.31 0.31 90 1019.6
20260504185909 50 241 0.9 1.7 0.09 0.31 0.31 90 1019.5
20260504185137 50 239 0.9 1.7 0.09 0.30 0.30 90 1019.4
20260504184636 50 239 0.0 1.7 0.10 0.30 0.30 90 1019.4
20260504184137 50 239 0.0 1.7 0.11 0.30 0.30 89 1019.5
20260504183635 50 239 0.0 1.7 0.11 0.29 0.30 89 1019.6
20260504183134 51 239 0.0 1.7 0.12 0.29 0.29 89 1019.6
20260504182631 50 239 0.0 1.7 0.12 0.28 0.28 88 1019.6
20260504182138 50 240 0.0 1.7 0.12 0.28 0.28 89 1019.6
20260504182132 50 240 0.0 1.7 0.12 0.28 0.28 89 1019.7
20260504181631 51 241 0.0 1.7 0.13 0.27 0.27 88 1019.7
20260504181137 51 241 0.0 2.6 0.12 0.25 0.25 88 1019.7
20260504181131 51 241 0.0 2.6 0.12 0.25 0.25 88 1019.8
20260504180629 51 241 0.0 2.6 0.12 0.24 0.24 88 1019.7
20260504180130 51 241 0.0 3.5 0.13 0.23 0.23 88 1019.7
20260504175629 51 241 0.9 3.5 0.13 0.22 0.22 88 1019.8
20260504175130 51 241 0.9 3.5 0.13 0.21 0.21 88 1019.7
20260504174630 51 242 0.9 3.5 0.13 0.20 0.20 88 1019.7
20260504174128 51 242 0.9 3.5 0.13 0.19 0.19 87 1019.7
20260504173627 51 241 0.9 2.6 0.12 0.18 0.18 88 1019.7
20260504173127 51 241 0.9 2.6 0.12 0.17 0.17 87 1019.5
20260504172626 51 241 0.9 2.6 0.11 0.17 0.17 87 1019.5
20260504172130 52 240 0.9 2.6 0.10 0.16 0.16 87 1019.7
20260504171857 52 239 0.0 2.6 0.09 0.14 0.15 88 1019.7
20260504171125 52 238 0.0 2.6 0.09 0.13 0.13 88 1019.7
20260504170625 52 239 0.9 2.6 0.07 0.12 0.12 87 1019.7
20260504170134 52 239 0.9 2.6 0.06 0.10 0.10 86 1019.7
20260504170126 52 239 0.9 2.6 0.06 0.10 0.10 86 1019.6